Fort Lewis, WA
on Monday, January 7, 2013

Monday
Previous Day Next Day
Daily Summary
 ActualAverage (KOLM)Record (KOLM)
Temperature
Mean Temperature °F 39°F  
Max Temperature 50°F 45°F 57°F (2002)
Min Temperature 41°F 34°F 6°F (1979)
Degree Days
Heating Degree Days 20 26  
Month to date heating degree days 182  
Since 1 July heating degree days 2452  
Cooling Degree Days 0 0  
Month to date cooling degree days 0  
Year to date cooling degree days 0  
Moisture
Dew Point 45°F   
Average Humidity 93    
Maximum Humidity 100    
Minimum Humidity 85    
Precipitation
Precipitation 0.08 in 0.25 in 4.82 in (2009)
Month to date precipitation 1.78  
Year to date precipitation 1.78  
Wind
Wind Speed 10 mph   
Max Wind Speed 20 mph   
Max Gust Speed 28 mph   
Visibility 9 miles   
Events Rain   

Key: T is trace of precipitation, MM is missing value
Source: NWS Daily Summary
Time(PST)TemperatureDew PointHumidity Pressure Visibility Wind DirectionWind SpeedGust SpeedPrecipitationEvents Conditions
12:26 AM 41.0°F 41.0°F 100% 29.96 in 10.0 miles SE 3.5 mph - N/A   Overcast
12:36 AM 41.0°F 41.0°F 100% 29.95 in 10.0 miles ESE 2.3 mph - N/A   Overcast
12:51 AM 41.0°F 41.0°F 100% 29.95 in 10.0 miles ESE 1.2 mph - N/A   Overcast
12:58 AM 41.2°F 40.5°F 97% 29.97 in 10.0 miles SE 1.2 mph - 0.01 in   Overcast
1:30 AM 41.0°F 41.0°F 100% 29.95 in 10.0 miles NE 2.3 mph - N/A   Overcast
1:46 AM 41.0°F 41.0°F 100% 29.95 in 10.0 miles East 1.2 mph - N/A   Overcast
1:58 AM 41.9°F 40.8°F 96% 29.96 in 10.0 miles East 3.5 mph - 0.00 in   Overcast
2:58 AM 45.1°F 41.0°F 85% 29.93 in 10.0 miles SSE 12.7 mph - N/A   Overcast
3:56 AM 46.4°F 42.8°F 87% 29.90 in 10.0 miles SSE 13.8 mph 21.9 mph N/A   Light Drizzle
3:58 AM 46.6°F 42.4°F 85% 29.92 in 10.0 miles South 15.0 mph 21.9 mph 0.01 in   Light Drizzle
4:00 AM 46.4°F 42.8°F 87% 29.90 in 10.0 miles South 11.5 mph 21.9 mph N/A   Overcast
4:58 AM 45.5°F 43.2°F 92% 29.88 in 10.0 miles SSE 15.0 mph 23.0 mph 0.01 in   Overcast
5:58 AM 46.2°F 42.8°F 88% 29.87 in 10.0 miles South 10.4 mph - N/A   Overcast
6:32 AM 46.4°F 42.8°F 87% 29.87 in 10.0 miles South 13.8 mph - N/A Rain Light Rain
6:42 AM 46.4°F 42.8°F 87% 29.86 in 10.0 miles South 13.8 mph 25.3 mph N/A   Overcast
6:58 AM 45.9°F 43.2°F 90% 29.86 in 10.0 miles South 16.1 mph 27.6 mph 0.01 in   Overcast
7:48 AM 46.4°F 44.6°F 93% 29.85 in 10.0 miles South 11.5 mph - N/A   Overcast
7:58 AM 46.6°F 44.1°F 91% 29.86 in 10.0 miles South 10.4 mph - N/A   Overcast
8:58 AM 47.1°F 45.1°F 93% 29.90 in 10.0 miles South 15.0 mph - N/A   Overcast
9:03 AM 46.4°F 44.6°F 93% 29.88 in 8.0 miles SSE 12.7 mph 23.0 mph N/A   Overcast
9:08 AM 46.4°F 44.6°F 93% 29.89 in 7.0 miles South 13.8 mph 23.0 mph N/A   Overcast
9:13 AM 46.4°F 46.4°F 100% 29.88 in 7.0 miles SSE 15.0 mph - N/A   Overcast
9:18 AM 46.4°F 46.4°F 100% 29.89 in 8.0 miles South 13.8 mph - N/A   Overcast
9:23 AM 48.2°F 46.4°F 93% 29.90 in 10.0 miles South 13.8 mph - N/A   Overcast
9:28 AM 48.2°F 46.4°F 93% 29.91 in 8.0 miles South 15.0 mph 21.9 mph N/A   Overcast
9:30 AM 48.2°F 46.4°F 93% 29.91 in 6.0 miles South 15.0 mph 21.9 mph N/A Rain Light Rain
9:37 AM 48.2°F 46.4°F 93% 29.91 in 3.0 miles South 12.7 mph 19.6 mph N/A Rain Light Rain
9:46 AM 48.2°F 46.4°F 93% 29.91 in 4.0 miles South 13.8 mph 19.6 mph N/A   Overcast
9:58 AM 47.3°F 46.6°F 97% 29.93 in 5.0 miles South 16.1 mph - 0.01 in   Overcast
10:58 AM 47.8°F 47.7°F 99% 29.96 in 5.0 miles South 11.5 mph - 0.01 in   Overcast
11:14 AM 48.2°F 48.2°F 100% 29.94 in 5.0 miles South 16.1 mph 20.7 mph N/A Rain Light Rain
11:39 AM 48.2°F 48.2°F 100% 29.96 in 2.5 miles South 12.7 mph - N/A Rain Light Rain
11:44 AM 48.2°F 48.2°F 100% 29.95 in 3.0 miles South 13.8 mph - N/A   Overcast
11:54 AM 48.2°F 48.2°F 100% 29.95 in 7.0 miles South 16.1 mph - N/A   Overcast
11:58 AM 48.9°F 48.6°F 99% 29.97 in 7.0 miles South 17.3 mph - 0.01 in   Overcast
12:08 PM 50.0°F 48.2°F 94% 29.97 in 9.0 miles SSW 16.1 mph 24.2 mph N/A   Overcast
12:58 PM 49.6°F 48.6°F 96% 29.99 in 10.0 miles South 19.6 mph 26.5 mph 0.01 in   Overcast
1:03 PM 50.0°F 48.2°F 94% 29.97 in 6.0 miles South 18.4 mph 27.6 mph N/A   Overcast
1:48 PM 50.0°F 48.2°F 94% 30.00 in 10.0 miles SSW 13.8 mph 24.2 mph N/A   Overcast
1:58 PM 49.6°F 47.5°F 92% 30.04 in 10.0 miles SSW 19.6 mph 25.3 mph N/A   Overcast
2:08 PM 50.0°F 46.4°F 87% 30.01 in 10.0 miles SSW 15.0 mph 24.2 mph N/A   Overcast
2:18 PM 50.0°F 46.4°F 87% 30.02 in 10.0 miles SSW 16.1 mph 23.0 mph N/A   Overcast
2:23 PM 50.0°F 46.4°F 87% 30.02 in 10.0 miles SSW 17.3 mph 23.0 mph N/A   Mostly Cloudy
2:53 PM 50.0°F 46.4°F 87% 30.01 in 10.0 miles South 13.8 mph 20.7 mph N/A   Mostly Cloudy
2:58 PM 49.5°F 47.1°F 92% 30.03 in 9.0 miles South 12.7 mph 19.6 mph N/A   Mostly Cloudy
3:03 PM 48.2°F 46.4°F 93% 30.02 in 8.0 miles SSW 15.0 mph 23.0 mph N/A   Overcast
3:08 PM 48.2°F 46.4°F 93% 30.04 in 10.0 miles SSW 13.8 mph 23.0 mph N/A   Overcast
3:23 PM 48.2°F 46.4°F 93% 30.05 in 10.0 miles South 15.0 mph - N/A   Overcast
3:33 PM 48.2°F 46.4°F 93% 30.04 in 10.0 miles South 12.7 mph - N/A   Overcast
3:38 PM 48.2°F 46.4°F 93% 30.05 in 10.0 miles South 10.4 mph 20.7 mph N/A   Overcast
3:48 PM 48.2°F 46.4°F 93% 30.06 in 9.0 miles South 9.2 mph - N/A   Overcast
3:58 PM 47.7°F 46.0°F 94% 30.08 in 10.0 miles South 12.7 mph - N/A   Overcast
4:13 PM 48.2°F 46.4°F 93% 30.06 in 10.0 miles South 11.5 mph 18.4 mph N/A   Overcast
4:18 PM 48.2°F 46.4°F 93% 30.06 in 10.0 miles South 11.5 mph - N/A   Overcast
4:23 PM 48.2°F 46.4°F 93% 30.06 in 10.0 miles South 11.5 mph - N/A   Overcast
4:43 PM 46.4°F 46.4°F 100% 30.06 in 10.0 miles South 12.7 mph - N/A   Overcast
4:58 PM 47.1°F 45.5°F 94% 30.09 in 10.0 miles South 13.8 mph - N/A   Overcast
5:33 PM 46.4°F 44.6°F 93% 30.08 in 10.0 miles South 13.8 mph 25.3 mph N/A   Overcast
5:53 PM 46.4°F 44.6°F 93% 30.09 in 10.0 miles SSW 10.4 mph - N/A   Overcast
5:58 PM 46.8°F 44.2°F 91% 30.12 in 10.0 miles South 9.2 mph - N/A   Overcast
6:08 PM 46.4°F 44.6°F 93% 30.10 in 10.0 miles South 10.4 mph - N/A   Overcast
6:43 PM 46.4°F 42.8°F 87% 30.10 in 10.0 miles South 11.5 mph 19.6 mph N/A   Overcast
6:58 PM 46.4°F 43.2°F 88% 30.12 in 10.0 miles South 11.5 mph 18.4 mph N/A   Overcast
7:58 PM 46.0°F 42.4°F 87% 30.12 in 10.0 miles South 11.5 mph - N/A   Overcast
8:58 PM 45.7°F 41.7°F 86% 30.16 in 10.0 miles South 10.4 mph 16.1 mph N/A   Overcast
9:58 PM 45.5°F 41.5°F 86% 30.17 in 10.0 miles SSE 10.4 mph - N/A   Overcast
10:28 PM 44.6°F 41.0°F 87% 30.15 in 10.0 miles SE 8.1 mph - N/A   Overcast
10:58 PM 44.4°F 41.7°F 90% 30.18 in 10.0 miles SSE 6.9 mph - N/A   Overcast
11:58 PM 44.1°F 41.5°F 91% 30.19 in 10.0 miles SSE 3.5 mph - N/A   Overcast
Moon Phase
Jan. 07 Jan. 11 Jan. 18 Jan. 26 Feb. 03
Sunrise:07:55 AM (PST) Moon Rise:03:21 AM (PST)1/7
Sunset:04:38 PM (PST) Moon Set:12:56 PM (PST)1/7

Copyright © 2014 The Weather Underground, Inc.